| time (UTC) | temp C | wind direction | speed KPH | gust KPH | rain 1hr cm | rain 24hr cm | rain mn cm | humidity % | barometer mb |
| 20260504020152 | 2 | 153 | 0.0 | 4.8 | 0.00 | 0.00 | 0.00 | 78 | 1018.3 |
| 20260504015953 | 2 | 284 | 0.0 | 4.8 | 0.00 | 0.00 | 0.00 | 78 | 1018.4 |
| 20260504015753 | 2 | 32 | 0.0 | 6.4 | 0.00 | 0.00 | 0.00 | 78 | 1018.4 |
| 20260504015553 | 2 | 307 | 4.8 | 6.4 | 0.00 | 0.00 | 0.00 | 77 | 1018.2 |
| 20260504015353 | 3 | 327 | 0.0 | 6.4 | 0.00 | 0.00 | 0.00 | 77 | 1018.3 |
| 20260504015153 | 3 | 282 | 1.6 | 6.4 | 0.00 | 0.00 | 0.00 | 76 | 1018.4 |
| 20260504014952 | 3 | 251 | 1.6 | 6.4 | 0.00 | 0.00 | 0.00 | 76 | 1018.2 |
| 20260504014752 | 3 | 268 | 1.6 | 6.4 | 0.00 | 0.00 | 0.00 | 76 | 1018.5 |
| 20260504014553 | 3 | 9 | 3.2 | 4.8 | 0.00 | 0.00 | 0.00 | 76 | 1018.4 |
| 20260504014354 | 3 | 310 | 3.2 | 4.8 | 0.00 | 0.00 | 0.00 | 76 | 1018.6 |
| 20260504014152 | 3 | 308 | 3.2 | 4.8 | 0.00 | 0.00 | 0.00 | 76 | 1018.4 |
| 20260504013952 | 3 | 323 | 1.6 | 4.8 | 0.00 | 0.00 | 0.00 | 76 | 1018.5 |
| 20260504013752 | 3 | 34 | 3.2 | 4.8 | 0.00 | 0.00 | 0.00 | 75 | 1018.6 |
| 20260504013552 | 2 | 297 | 3.2 | 4.8 | 0.00 | 0.00 | 0.00 | 76 | 1018.4 |
| 20260504013352 | 2 | 42 | 3.2 | 4.8 | 0.00 | 0.00 | 0.00 | 77 | 1018.5 |
| 20260504013152 | 2 | 31 | 0.0 | 3.2 | 0.00 | 0.00 | 0.00 | 77 | 1018.6 |
| 20260504012952 | 2 | 353 | 1.6 | 3.2 | 0.00 | 0.00 | 0.00 | 77 | 1018.7 |
| 20260504012752 | 2 | 21 | 0.0 | 3.2 | 0.00 | 0.00 | 0.00 | 76 | 1018.4 |
| 20260504012552 | 3 | 65 | 0.0 | 4.8 | 0.00 | 0.00 | 0.00 | 76 | 1018.7 |
| 20260504012352 | 3 | 102 | 3.2 | 4.8 | 0.00 | 0.00 | 0.00 | 75 | 1018.6 |
| 20260504012153 | 3 | 107 | 0.0 | 4.8 | 0.00 | 0.00 | 0.00 | 75 | 1018.7 |
| 20260504011953 | 3 | 45 | 0.0 | 4.8 | 0.00 | 0.00 | 0.00 | 75 | 1018.5 |
| 20260504011752 | 3 | 312 | 1.6 | 8.0 | 0.00 | 0.00 | 0.00 | 74 | 1018.8 |
| 20260504011552 | 3 | 316 | 0.0 | 8.0 | 0.00 | 0.00 | 0.00 | 74 | 1018.6 |
| 20260504011352 | 3 | 140 | 0.0 | 8.0 | 0.00 | 0.00 | 0.00 | 73 | 1018.5 |
| 20260504011152 | 3 | 333 | 0.0 | 8.0 | 0.00 | 0.00 | 0.00 | 72 | 1018.7 |
| 20260504010953 | 3 | 330 | 1.6 | 8.0 | 0.00 | 0.00 | 0.00 | 74 | 1018.6 |
| 20260504010753 | 3 | 17 | 3.2 | 6.4 | 0.00 | 0.00 | 0.00 | 75 | 1018.6 |
| 20260504010553 | 3 | 35 | 3.2 | 4.8 | 0.00 | 0.00 | 0.00 | 76 | 1018.7 |
| 20260504010353 | 3 | 128 | 0.0 | 4.8 | 0.00 | 0.00 | 0.00 | 75 | 1018.5 |
| 20260504010154 | 3 | 144 | 3.2 | 4.8 | 0.00 | 0.00 | 0.00 | 75 | 1018.4 |
| 20260504005953 | 3 | 356 | 0.0 | 4.8 | 0.00 | 0.00 | 0.00 | 75 | 1018.7 |
| 20260504005753 | 3 | 350 | 4.8 | 6.4 | 0.00 | 0.00 | 0.00 | 76 | 1018.8 |
| 20260504005553 | 2 | 68 | 3.2 | 6.4 | 0.00 | 0.00 | 0.00 | 77 | 1018.8 |
| 20260504005352 | 2 | 37 | 0.0 | 6.4 | 0.00 | 0.00 | 0.00 | 79 | 1018.4 |
| 20260504005152 | 2 | 32 | 0.0 | 6.4 | 0.00 | 0.00 | 0.00 | 80 | 1018.7 |
| 20260504004952 | 2 | 60 | 0.0 | 6.4 | 0.00 | 0.00 | 0.00 | 81 | 1018.7 |
| 20260504004752 | 2 | 79 | 1.6 | 3.2 | 0.00 | 0.00 | 0.00 | 81 | 1018.5 |
| 20260504004552 | 2 | 180 | 0.0 | 3.2 | 0.00 | 0.00 | 0.00 | 81 | 1018.8 |
| 20260504004352 | 2 | 112 | 1.6 | 3.2 | 0.00 | 0.00 | 0.00 | 80 | 1018.8 |
| 20260504004152 | 2 | 48 | 3.2 | 3.2 | 0.00 | 0.00 | 0.00 | 80 | 1018.9 |
| 20260504003953 | 2 | 278 | 0.0 | 3.2 | 0.00 | 0.00 | 0.00 | 80 | 1018.9 |
| 20260504003753 | 2 | 44 | 0.0 | 3.2 | 0.00 | 0.00 | 0.00 | 81 | 1019.0 |
| 20260504003552 | 2 | 33 | 1.6 | 3.2 | 0.00 | 0.00 | 0.00 | 81 | 1018.9 |
| 20260504003352 | 2 | 23 | 0.0 | 4.8 | 0.00 | 0.00 | 0.00 | 80 | 1018.8 |
| 20260504003153 | 2 | 119 | 0.0 | 4.8 | 0.00 | 0.00 | 0.00 | 80 | 1018.8 |
| 20260504002952 | 2 | 28 | 0.0 | 4.8 | 0.00 | 0.00 | 0.00 | 81 | 1018.9 |
| 20260504002752 | 2 | 93 | 1.6 | 4.8 | 0.00 | 0.00 | 0.00 | 81 | 1018.9 |
| 20260504002552 | 2 | 59 | 3.2 | 4.8 | 0.00 | 0.00 | 0.00 | 80 | 1018.9 |
| 20260504002352 | 2 | 66 | 4.8 | 4.8 | 0.00 | 0.00 | 0.00 | 82 | 1018.9 |
| 20260504002152 | 2 | 45 | 3.2 | 4.8 | 0.00 | 0.00 | 0.00 | 81 | 1019.1 |
| 20260504001954 | 2 | 113 | 0.0 | 3.2 | 0.00 | 0.00 | 0.00 | 81 | 1018.9 |
| 20260504001753 | 2 | 59 | 0.0 | 4.8 | 0.00 | 0.00 | 0.00 | 81 | 1018.9 |
| 20260504001553 | 2 | 257 | 0.0 | 6.4 | 0.00 | 0.00 | 0.00 | 81 | 1019.0 |
| 20260504001355 | 2 | 283 | 1.6 | 6.4 | 0.00 | 0.00 | 0.00 | 80 | 1019.0 |
| 20260504001153 | 2 | 47 | 0.0 | 6.4 | 0.00 | 0.00 | 0.00 | 80 | 1019.1 |
| 20260504000953 | 2 | 307 | 3.2 | 6.4 | 0.00 | 0.00 | 0.00 | 80 | 1019.0 |
| 20260504000753 | 2 | 39 | 0.0 | 6.4 | 0.00 | 0.00 | 0.00 | 79 | 1018.7 |
| 20260504000553 | 2 | 81 | 1.6 | 8.0 | 0.00 | 0.00 | 0.00 | 79 | 1018.7 |
| 20260504000354 | 2 | 97 | 3.2 | 8.0 | 0.00 | 0.00 | 0.00 | 79 | 1018.9 |
| 20260504000153 | 2 | 54 | 3.2 | 8.0 | 0.00 | 0.00 | 0.00 | 79 | 1019.0 |
| 20260503235952 | 2 | 54 | 1.6 | 8.0 | 0.00 | 0.00 | 0.00 | 81 | 1018.8 |
| 20260503235752 | 2 | 38 | 6.4 | 8.0 | 0.00 | 0.00 | 0.00 | 81 | 1018.8 |
| 20260503235552 | 2 | 56 | 0.0 | 4.8 | 0.00 | 0.00 | 0.00 | 81 | 1018.9 |
| 20260503235352 | 2 | 352 | 0.0 | 4.8 | 0.00 | 0.00 | 0.00 | 81 | 1018.5 |
| 20260503235152 | 2 | 322 | 1.6 | 4.8 | 0.00 | 0.00 | 0.00 | 80 | 1018.7 |
| 20260503234952 | 2 | 68 | 0.0 | 4.8 | 0.00 | 0.00 | 0.00 | 80 | 1018.6 |
| 20260503234752 | 2 | 115 | 3.2 | 4.8 | 0.00 | 0.00 | 0.00 | 79 | 1018.7 |
| 20260503234553 | 2 | 66 | 3.2 | 4.8 | 0.00 | 0.00 | 0.00 | 79 | 1018.5 |
| 20260503234353 | 2 | 62 | 3.2 | 4.8 | 0.00 | 0.00 | 0.00 | 80 | 1018.7 |
| 20260503234153 | 3 | 169 | 1.6 | 4.8 | 0.00 | 0.00 | 0.00 | 80 | 1018.7 |
| 20260503233952 | 3 | 322 | 0.0 | 4.8 | 0.00 | 0.00 | 0.00 | 78 | 1018.9 |
| 20260503233758 | 3 | 46 | 3.2 | 4.8 | 0.00 | 0.00 | 0.00 | 77 | 1018.8 |
| 20260503233552 | 3 | 22 | 3.2 | 4.8 | 0.00 | 0.00 | 0.00 | 77 | 1018.6 |
| 20260503233353 | 3 | 63 | 3.2 | 4.8 | 0.00 | 0.00 | 0.00 | 77 | 1018.6 |
| 20260503233153 | 3 | 89 | 3.2 | 4.8 | 0.00 | 0.00 | 0.00 | 76 | 1018.4 |
| 20260503232953 | 3 | 172 | 1.6 | 6.4 | 0.00 | 0.00 | 0.00 | 75 | 1018.6 |
| 20260503232753 | 3 | 325 | 0.0 | 6.4 | 0.00 | 0.00 | 0.00 | 75 | 1018.7 |
| 20260503232552 | 3 | 28 | 0.0 | 6.4 | 0.00 | 0.00 | 0.00 | 76 | 1018.7 |
| 20260503232351 | 3 | 42 | 3.2 | 6.4 | 0.00 | 0.00 | 0.00 | 76 | 1018.7 |
| 20260503232152 | 3 | 114 | 1.6 | 6.4 | 0.00 | 0.00 | 0.00 | 75 | 1018.5 |
| 20260503231952 | 4 | 110 | 3.2 | 6.4 | 0.00 | 0.00 | 0.00 | 74 | 1018.6 |
| 20260503231752 | 4 | 120 | 3.2 | 6.4 | 0.00 | 0.00 | 0.00 | 70 | 1018.5 |
| 20260503231553 | 3 | 217 | 0.0 | 4.8 | 0.00 | 0.00 | 0.00 | 75 | 1018.8 |
| 20260503231353 | 3 | 115 | 0.0 | 4.8 | 0.00 | 0.00 | 0.00 | 79 | 1018.5 |
| 20260503231156 | 3 | 261 | 0.0 | 4.8 | 0.00 | 0.00 | 0.00 | 78 | 1018.5 |
| 20260503230952 | 3 | 65 | 3.2 | 4.8 | 0.00 | 0.00 | 0.00 | 78 | 1018.7 |
| 20260503230752 | 3 | 302 | 3.2 | 4.8 | 0.00 | 0.00 | 0.00 | 77 | 1018.8 |
| 20260503230552 | 3 | 38 | 0.0 | 4.8 | 0.00 | 0.00 | 0.00 | 77 | 1018.5 |
| 20260503230352 | 3 | 253 | 0.0 | 4.8 | 0.00 | 0.00 | 0.00 | 78 | 1018.8 |
| 20260503230152 | 3 | 353 | 3.2 | 4.8 | 0.00 | 0.00 | 0.00 | 77 | 1018.6 |
| 20260503225952 | 3 | 42 | 1.6 | 4.8 | 0.00 | 0.00 | 0.00 | 78 | 1018.5 |
| 20260503225751 | 3 | 48 | 0.0 | 4.8 | 0.00 | 0.00 | 0.00 | 78 | 1018.8 |
| 20260503225552 | 3 | 350 | 1.6 | 6.4 | 0.00 | 0.00 | 0.00 | 77 | 1018.7 |
| 20260503225352 | 3 | 41 | 3.2 | 6.4 | 0.00 | 0.00 | 0.00 | 77 | 1018.6 |
| 20260503225152 | 3 | 103 | 3.2 | 6.4 | 0.00 | 0.00 | 0.00 | 78 | 1018.5 |
| 20260503224952 | 3 | 61 | 0.0 | 6.4 | 0.00 | 0.00 | 0.00 | 77 | 1018.5 |
| 20260503224751 | 3 | 24 | 3.2 | 6.4 | 0.00 | 0.00 | 0.00 | 77 | 1018.6 |
| 20260503224551 | 3 | 26 | 3.2 | 6.4 | 0.00 | 0.00 | 0.00 | 77 | 1018.8 |
| 20260503224351 | 3 | 23 | 0.0 | 6.4 | 0.00 | 0.00 | 0.00 | 76 | 1018.4 |
| 20260503224151 | 3 | 254 | 0.0 | 6.4 | 0.00 | 0.00 | 0.00 | 76 | 1018.5 |
| 20260503223951 | 3 | 16 | 3.2 | 6.4 | 0.00 | 0.00 | 0.00 | 74 | 1018.5 |
| 20260503223751 | 4 | 11 | 1.6 | 6.4 | 0.00 | 0.00 | 0.00 | 74 | 1018.6 |
| 20260503223552 | 3 | 24 | 3.2 | 6.4 | 0.00 | 0.00 | 0.00 | 73 | 1018.5 |
| 20260503223353 | 3 | 53 | 1.6 | 6.4 | 0.00 | 0.00 | 0.00 | 77 | 1018.4 |
| 20260503223152 | 3 | 59 | 1.6 | 9.7 | 0.00 | 0.00 | 0.00 | 77 | 1018.5 |
| 20260503222951 | 3 | 56 | 3.2 | 9.7 | 0.00 | 0.00 | 0.00 | 77 | 1018.5 |
| 20260503222752 | 3 | 62 | 3.2 | 9.7 | 0.00 | 0.00 | 0.00 | 77 | 1018.3 |
| 20260503222551 | 3 | 85 | 0.0 | 9.7 | 0.00 | 0.00 | 0.00 | 77 | 1018.4 |
| 20260503222351 | 3 | 65 | 3.2 | 9.7 | 0.00 | 0.00 | 0.00 | 77 | 1018.4 |
| 20260503222152 | 3 | 80 | 1.6 | 6.4 | 0.00 | 0.00 | 0.00 | 76 | 1018.2 |
| 20260503221951 | 3 | 43 | 1.6 | 6.4 | 0.00 | 0.00 | 0.00 | 75 | 1018.4 |
| 20260503221752 | 4 | 15 | 3.2 | 6.4 | 0.00 | 0.00 | 0.00 | 76 | 1018.5 |
| 20260503221551 | 4 | 128 | 1.6 | 6.4 | 0.00 | 0.00 | 0.00 | 75 | 1018.4 |
| 20260503221351 | 4 | 63 | 6.4 | 6.4 | 0.00 | 0.00 | 0.00 | 73 | 1018.7 |
| 20260503221151 | 5 | 122 | 3.2 | 6.4 | 0.00 | 0.00 | 0.00 | 73 | 1018.5 |
| 20260503220952 | 5 | 115 | 1.6 | 6.4 | 0.00 | 0.00 | 0.00 | 70 | 1018.4 |
| 20260503220752 | 5 | 51 | 3.2 | 6.4 | 0.00 | 0.00 | 0.00 | 70 | 1018.4 |
| 20260503220552 | 5 | 78 | 3.2 | 8.0 | 0.00 | 0.00 | 0.00 | 69 | 1018.5 |
| 20260503220351 | 5 | 252 | 0.0 | 8.0 | 0.00 | 0.00 | 0.00 | 70 | 1018.6 |
| 20260503220151 | 5 | 71 | 3.2 | 8.0 | 0.00 | 0.00 | 0.00 | 69 | 1018.2 |
| 20260503215951 | 5 | 93 | 1.6 | 8.0 | 0.00 | 0.00 | 0.00 | 70 | 1018.5 |
| 20260503215751 | 5 | 41 | 4.8 | 8.0 | 0.00 | 0.00 | 0.00 | 69 | 1018.5 |
| 20260503215552 | 5 | 287 | 3.2 | 6.4 | 0.00 | 0.00 | 0.00 | 69 | 1018.4 |
| 20260503215351 | 5 | 229 | 3.2 | 12.9 | 0.00 | 0.00 | 0.00 | 68 | 1018.7 |
| 20260503215153 | 5 | 325 | 3.2 | 12.9 | 0.00 | 0.00 | 0.00 | 68 | 1018.6 |
| 20260503214952 | 5 | 87 | 0.0 | 12.9 | 0.00 | 0.00 | 0.00 | 67 | 1018.5 |
| 20260503214752 | 5 | 345 | 3.2 | 12.9 | 0.00 | 0.00 | 0.00 | 68 | 1018.7 |
| 20260503214552 | 5 | 350 | 3.2 | 12.9 | 0.00 | 0.00 | 0.00 | 68 | 1018.7 |
| 20260503214352 | 5 | 196 | 4.8 | 9.7 | 0.00 | 0.00 | 0.00 | 70 | 1018.5 |
| 20260503214152 | 4 | 268 | 3.2 | 6.4 | 0.00 | 0.00 | 0.00 | 71 | 1018.9 |
| 20260503213951 | 4 | 300 | 0.0 | 4.8 | 0.00 | 0.00 | 0.00 | 73 | 1018.9 |
| 20260503213751 | 4 | 3 | 1.6 | 6.4 | 0.00 | 0.00 | 0.00 | 73 | 1018.8 |
| 20260503213551 | 4 | 38 | 3.2 | 6.4 | 0.00 | 0.00 | 0.00 | 74 | 1018.9 |
| 20260503213351 | 4 | 66 | 0.0 | 6.4 | 0.00 | 0.00 | 0.00 | 73 | 1018.7 |
| 20260503213152 | 4 | 67 | 1.6 | 6.4 | 0.00 | 0.00 | 0.00 | 72 | 1018.6 |
| 20260503212951 | 4 | 44 | 0.0 | 6.4 | 0.00 | 0.00 | 0.00 | 72 | 1018.9 |
| 20260503212751 | 4 | 308 | 3.2 | 6.4 | 0.00 | 0.00 | 0.00 | 72 | 1018.9 |
| 20260503212552 | 4 | 311 | 0.0 | 6.4 | 0.00 | 0.00 | 0.00 | 72 | 1018.8 |
| 20260503212351 | 4 | 346 | 0.0 | 6.4 | 0.00 | 0.00 | 0.00 | 72 | 1018.4 |
| 20260503212151 | 4 | 161 | 3.2 | 6.4 | 0.00 | 0.00 | 0.00 | 72 | 1018.6 |
| 20260503211951 | 4 | 207 | 3.2 | 6.4 | 0.00 | 0.00 | 0.00 | 74 | 1018.7 |
| 20260503211751 | 3 | 1 | 0.0 | 6.4 | 0.00 | 0.00 | 0.00 | 76 | 1018.9 |
| 20260503211551 | 3 | 300 | 3.2 | 4.8 | 0.00 | 0.00 | 0.00 | 77 | 1018.9 |
| 20260503211351 | 3 | 50 | 1.6 | 6.4 | 0.00 | 0.00 | 0.00 | 76 | 1018.7 |
| 20260503211151 | 3 | 65 | 1.6 | 6.4 | 0.00 | 0.00 | 0.00 | 76 | 1018.6 |
| 20260503210953 | 4 | 83 | 0.0 | 6.4 | 0.00 | 0.00 | 0.00 | 75 | 1018.8 |
| 20260503210752 | 4 | 49 | 3.2 | 6.4 | 0.00 | 0.00 | 0.00 | 75 | 1019.1 |
| 20260503210552 | 3 | 42 | 3.2 | 6.4 | 0.00 | 0.00 | 0.00 | 76 | 1018.9 |
| 20260503210352 | 3 | 63 | 3.2 | 6.4 | 0.00 | 0.00 | 0.00 | 78 | 1019.0 |
| 20260503210152 | 3 | 149 | 3.2 | 6.4 | 0.00 | 0.00 | 0.00 | 77 | 1018.7 |
| 20260503205952 | 3 | 0 | 0.0 | 6.4 | 0.00 | 0.00 | 0.00 | 76 | 1018.6 |
| 20260503205752 | 3 | 14 | 1.6 | 6.4 | 0.00 | 0.00 | 0.00 | 75 | 1018.9 |
| 20260503205552 | 4 | 31 | 3.2 | 6.4 | 0.00 | 0.03 | 0.00 | 75 | 1018.8 |
| 20260503205352 | 4 | 45 | 3.2 | 6.4 | 0.00 | 0.03 | 0.00 | 75 | 1018.8 |
| 20260503205152 | 4 | 40 | 3.2 | 6.4 | 0.00 | 0.03 | 0.00 | 75 | 1019.0 |
| 20260503204952 | 4 | 96 | 3.2 | 6.4 | 0.00 | 0.03 | 0.00 | 76 | 1018.9 |
| 20260503204752 | 4 | 17 | 0.0 | 6.4 | 0.00 | 0.03 | 0.00 | 76 | 1018.8 |
| 20260503204551 | 4 | 71 | 3.2 | 6.4 | 0.00 | 0.03 | 0.00 | 76 | 1018.7 |
| 20260503204351 | 4 | 85 | 3.2 | 6.4 | 0.00 | 0.03 | 0.00 | 75 | 1018.8 |
| 20260503204151 | 4 | 45 | 3.2 | 6.4 | 0.00 | 0.03 | 0.00 | 73 | 1019.1 |
| 20260503203951 | 4 | 38 | 1.6 | 6.4 | 0.00 | 0.03 | 0.00 | 75 | 1019.1 |
| 20260503203751 | 4 | 15 | 3.2 | 6.4 | 0.00 | 0.03 | 0.00 | 73 | 1018.9 |
| 20260503203551 | 4 | 31 | 0.0 | 6.4 | 0.00 | 0.03 | 0.00 | 74 | 1018.8 |
| 20260503203351 | 4 | 57 | 3.2 | 6.4 | 0.00 | 0.03 | 0.00 | 74 | 1018.9 |
| 20260503203151 | 4 | 63 | 1.6 | 8.0 | 0.00 | 0.03 | 0.00 | 74 | 1018.9 |
| 20260503202951 | 5 | 347 | 0.0 | 9.7 | 0.00 | 0.03 | 0.00 | 72 | 1019.0 |
| 20260503202753 | 5 | 311 | 1.6 | 9.7 | 0.00 | 0.03 | 0.00 | 72 | 1018.9 |
| 20260503202552 | 5 | 156 | 1.6 | 9.7 | 0.00 | 0.03 | 0.00 | 72 | 1019.2 |
| 20260503202350 | 5 | 39 | 4.8 | 9.7 | 0.00 | 0.03 | 0.00 | 72 | 1019.1 |
| 20260503202150 | 5 | 47 | 6.4 | 9.7 | 0.00 | 0.03 | 0.00 | 71 | 1018.9 |
| 20260503201951 | 4 | 85 | 3.2 | 6.4 | 0.00 | 0.03 | 0.00 | 71 | 1018.7 |
| 20260503201752 | 4 | 84 | 3.2 | 6.4 | 0.00 | 0.03 | 0.00 | 74 | 1018.9 |
| 20260503201552 | 4 | 80 | 3.2 | 4.8 | 0.00 | 0.03 | 0.00 | 77 | 1018.7 |
| 20260503201352 | 4 | 67 | 1.6 | 4.8 | 0.00 | 0.03 | 0.00 | 77 | 1019.0 |
| 20260503201152 | 4 | 15 | 3.2 | 4.8 | 0.00 | 0.03 | 0.00 | 77 | 1019.0 |
| 20260503200951 | 4 | 355 | 3.2 | 4.8 | 0.00 | 0.03 | 0.00 | 78 | 1019.0 |
| 20260503200752 | 3 | 61 | 3.2 | 6.4 | 0.00 | 0.03 | 0.00 | 78 | 1018.8 |
| 20260503200551 | 4 | 51 | 0.0 | 6.4 | 0.00 | 0.03 | 0.00 | 78 | 1018.9 |
| 20260503200351 | 4 | 141 | 0.0 | 6.4 | 0.00 | 0.03 | 0.00 | 77 | 1018.9 |
| 20260503200151 | 4 | 105 | 3.2 | 6.4 | 0.00 | 0.03 | 0.00 | 76 | 1019.2 |
| 20260503195951 | 4 | 141 | 1.6 | 6.4 | 0.00 | 0.03 | 0.00 | 76 | 1019.1 |
| 20260503195752 | 5 | 308 | 3.2 | 6.4 | 0.00 | 0.03 | 0.00 | 74 | 1019.0 |
| 20260503195551 | 5 | 17 | 1.6 | 6.4 | 0.00 | 0.03 | 0.00 | 73 | 1019.2 |
| 20260503195351 | 5 | 42 | 1.6 | 6.4 | 0.00 | 0.03 | 0.00 | 74 | 1019.2 |
| 20260503195151 | 5 | 55 | 1.6 | 6.4 | 0.00 | 0.03 | 0.00 | 74 | 1019.0 |
| 20260503194951 | 5 | 26 | 1.6 | 6.4 | 0.00 | 0.03 | 0.00 | 73 | 1019.0 |
| 20260503194751 | 5 | 70 | 3.2 | 6.4 | 0.00 | 0.03 | 0.00 | 73 | 1019.2 |
| 20260503194553 | 5 | 74 | 3.2 | 4.8 | 0.00 | 0.03 | 0.00 | 71 | 1019.1 |
| 20260503194351 | 5 | 342 | 1.6 | 4.8 | 0.00 | 0.03 | 0.00 | 72 | 1018.9 |
| 20260503194151 | 5 | 344 | 1.6 | 3.2 | 0.00 | 0.03 | 0.00 | 72 | 1019.1 |
| 20260503193952 | 5 | 22 | 0.0 | 4.8 | 0.00 | 0.03 | 0.00 | 72 | 1019.0 |
| 20260503193752 | 5 | 293 | 3.2 | 6.4 | 0.00 | 0.03 | 0.00 | 72 | 1019.2 |
| 20260503193552 | 5 | 315 | 3.2 | 6.4 | 0.00 | 0.03 | 0.00 | 72 | 1019.2 |
| 20260503193352 | 5 | 18 | 0.0 | 6.4 | 0.00 | 0.03 | 0.00 | 72 | 1019.2 |
| 20260503193152 | 5 | 0 | 0.0 | 6.4 | 0.00 | 0.03 | 0.00 | 72 | 1019.3 |
| 20260503192952 | 5 | 54 | 3.2 | 6.4 | 0.00 | 0.03 | 0.00 | 72 | 1019.1 |
| 20260503192752 | 5 | 84 | 3.2 | 4.8 | 0.00 | 0.03 | 0.00 | 72 | 1019.0 |
| 20260503192551 | 6 | 113 | 3.2 | 6.4 | 0.00 | 0.03 | 0.00 | 70 | 1019.1 |
| 20260503192351 | 5 | 102 | 3.2 | 6.4 | 0.00 | 0.03 | 0.00 | 69 | 1019.3 |
| 20260503192151 | 5 | 59 | 3.2 | 6.4 | 0.00 | 0.03 | 0.00 | 75 | 1019.2 |
| 20260503191951 | 5 | 340 | 1.6 | 6.4 | 0.00 | 0.03 | 0.00 | 75 | 1019.5 |
| 20260503191751 | 4 | 15 | 3.2 | 6.4 | 0.00 | 0.03 | 0.00 | 76 | 1019.2 |
| 20260503191551 | 4 | 47 | 3.2 | 6.4 | 0.00 | 0.03 | 0.00 | 77 | 1019.0 |
| 20260503191352 | 5 | 48 | 3.2 | 3.2 | 0.00 | 0.03 | 0.00 | 76 | 1019.2 |
| 20260503191152 | 5 | 228 | 0.0 | 4.8 | 0.00 | 0.03 | 0.00 | 73 | 1019.3 |
| 20260503190952 | 5 | 315 | 0.0 | 4.8 | 0.00 | 0.03 | 0.00 | 74 | 1019.5 |
| 20260503190752 | 5 | 23 | 0.0 | 4.8 | 0.00 | 0.03 | 0.00 | 75 | 1019.5 |
| 20260503190551 | 5 | 26 | 1.6 | 4.8 | 0.00 | 0.03 | 0.00 | 75 | 1019.6 |
| 20260503190352 | 5 | 7 | 1.6 | 6.4 | 0.00 | 0.03 | 0.00 | 75 | 1019.6 |
| 20260503190151 | 5 | 7 | 0.0 | 6.4 | 0.00 | 0.03 | 0.00 | 75 | 1019.5 |
| 20260503185951 | 5 | 17 | 3.2 | 6.4 | 0.00 | 0.03 | 0.00 | 75 | 1019.5 |
| 20260503185751 | 5 | 350 | 0.0 | 6.4 | 0.00 | 0.03 | 0.00 | 74 | 1019.5 |
| 20260503185551 | 5 | 57 | 1.6 | 6.4 | 0.00 | 0.03 | 0.00 | 73 | 1019.3 |
| 20260503185351 | 5 | 28 | 3.2 | 6.4 | 0.00 | 0.03 | 0.00 | 72 | 1019.3 |
| 20260503185151 | 5 | 37 | 3.2 | 6.4 | 0.00 | 0.03 | 0.00 | 74 | 1019.6 |
| 20260503184952 | 5 | 51 | 4.8 | 6.4 | 0.00 | 0.03 | 0.00 | 76 | 1019.5 |
| 20260503184752 | 5 | 56 | 3.2 | 4.8 | 0.00 | 0.03 | 0.00 | 77 | 1019.5 |
| 20260503184551 | 5 | 329 | 0.0 | 4.8 | 0.00 | 0.03 | 0.00 | 77 | 1019.3 |
| 20260503184351 | 5 | 53 | 1.6 | 4.8 | 0.00 | 0.03 | 0.00 | 77 | 1019.3 |
| 20260503184152 | 5 | 55 | 3.2 | 3.2 | 0.00 | 0.03 | 0.00 | 77 | 1019.5 |
| 20260503183951 | 5 | 82 | 0.0 | 3.2 | 0.00 | 0.03 | 0.00 | 77 | 1019.5 |
| 20260503183751 | 5 | 77 | 1.6 | 3.2 | 0.00 | 0.03 | 0.00 | 76 | 1019.5 |
| 20260503183551 | 5 | 60 | 3.2 | 4.8 | 0.00 | 0.03 | 0.00 | 76 | 1019.6 |
| 20260503183351 | 5 | 144 | 0.0 | 4.8 | 0.00 | 0.03 | 0.00 | 75 | 1019.3 |
| 20260503183151 | 5 | 163 | 0.0 | 4.8 | 0.00 | 0.03 | 0.00 | 76 | 1019.6 |
| 20260503182951 | 5 | 34 | 0.0 | 4.8 | 0.00 | 0.03 | 0.00 | 75 | 1019.7 |
| 20260503182751 | 5 | 319 | 0.0 | 4.8 | 0.00 | 0.03 | 0.00 | 73 | 1019.5 |
| 20260503182551 | 5 | 60 | 0.0 | 4.8 | 0.00 | 0.03 | 0.00 | 71 | 1019.6 |
| 20260503182351 | 5 | 41 | 3.2 | 4.8 | 0.00 | 0.03 | 0.00 | 71 | 1019.6 |
| 20260503182153 | 5 | 55 | 3.2 | 4.8 | 0.00 | 0.03 | 0.00 | 72 | 1019.5 |
| 20260503181951 | 5 | 11 | 1.6 | 4.8 | 0.00 | 0.03 | 0.00 | 73 | 1019.6 |
| 20260503181751 | 5 | 13 | 0.0 | 3.2 | 0.00 | 0.03 | 0.00 | 72 | 1019.6 |
| 20260503181551 | 5 | 34 | 1.6 | 3.2 | 0.00 | 0.03 | 0.00 | 72 | 1019.5 |
| 20260503181351 | 6 | 4 | 0.0 | 3.2 | 0.00 | 0.03 | 0.00 | 71 | 1019.6 |
| 20260503181151 | 6 | 4 | 0.0 | 3.2 | 0.00 | 0.03 | 0.00 | 71 | 1019.6 |
| 20260503180952 | 6 | 1 | 0.0 | 3.2 | 0.00 | 0.03 | 0.00 | 71 | 1019.6 |
| 20260503180752 | 6 | 31 | 1.6 | 3.2 | 0.00 | 0.03 | 0.00 | 69 | 1019.5 |
| 20260503180552 | 6 | 115 | 3.2 | 3.2 | 0.00 | 0.03 | 0.00 | 69 | 1019.3 |
| 20260503180352 | 6 | 334 | 0.0 | 3.2 | 0.00 | 0.03 | 0.00 | 67 | 1019.3 |
| 20260503180152 | 6 | 14 | 0.0 | 3.2 | 0.00 | 0.03 | 0.00 | 66 | 1019.6 |
| 20260503175951 | 7 | 344 | 0.0 | 3.2 | 0.00 | 0.03 | 0.00 | 67 | 1019.6 |
| 20260503175751 | 7 | 0 | 0.0 | 3.2 | 0.00 | 0.03 | 0.00 | 65 | 1019.5 |
| 20260503175552 | 7 | 191 | 0.0 | 3.2 | 0.00 | 0.03 | 0.00 | 64 | 1019.6 |
| 20260503175352 | 7 | 42 | 1.6 | 4.8 | 0.00 | 0.03 | 0.00 | 62 | 1019.6 |
| 20260503175152 | 7 | 359 | 0.0 | 4.8 | 0.00 | 0.03 | 0.00 | 61 | 1019.6 |
| 20260503174952 | 7 | 192 | 0.0 | 4.8 | 0.00 | 0.03 | 0.00 | 60 | 1019.6 |
| 20260503174752 | 7 | 20 | 0.0 | 6.4 | 0.00 | 0.03 | 0.00 | 60 | 1019.2 |
| 20260503174551 | 8 | 36 | 3.2 | 6.4 | 0.00 | 0.03 | 0.00 | 60 | 1019.3 |
| 20260503174351 | 7 | 35 | 3.2 | 6.4 | 0.00 | 0.03 | 0.00 | 57 | 1019.5 |
| 20260503174151 | 8 | 51 | 1.6 | 6.4 | 0.00 | 0.03 | 0.00 | 59 | 1019.5 |
| 20260503173952 | 8 | 10 | 3.2 | 6.4 | 0.00 | 0.03 | 0.00 | 59 | 1019.3 |
| 20260503173751 | 8 | 46 | 3.2 | 6.4 | 0.00 | 0.03 | 0.00 | 59 | 1019.1 |
| 20260503173551 | 8 | 72 | 4.8 | 6.4 | 0.00 | 0.03 | 0.00 | 58 | 1019.5 |
| 20260503173351 | 8 | 45 | 3.2 | 6.4 | 0.00 | 0.03 | 0.00 | 56 | 1019.3 |
| 20260503173151 | 8 | 75 | 3.2 | 6.4 | 0.00 | 0.03 | 0.00 | 57 | 1019.5 |
| 20260503172952 | 8 | 311 | 3.2 | 6.4 | 0.00 | 0.03 | 0.00 | 56 | 1019.5 |
| 20260503172752 | 8 | 299 | 3.2 | 4.8 | 0.00 | 0.03 | 0.00 | 57 | 1019.5 |
| 20260503172552 | 8 | 37 | 3.2 | 4.8 | 0.00 | 0.03 | 0.00 | 58 | 1019.2 |
| 20260503172352 | 8 | 209 | 1.6 | 3.2 | 0.00 | 0.03 | 0.00 | 55 | 1019.3 |
| 20260503172152 | 8 | 286 | 3.2 | 3.2 | 0.00 | 0.03 | 0.00 | 56 | 1019.3 |
| 20260503171952 | 8 | 2 | 0.0 | 4.8 | 0.00 | 0.03 | 0.00 | 56 | 1019.1 |
| 20260503171752 | 8 | 289 | 1.6 | 6.4 | 0.00 | 0.03 | 0.00 | 56 | 1019.1 |
| 20260503171552 | 8 | 356 | 0.0 | 6.4 | 0.00 | 0.03 | 0.00 | 54 | 1019.2 |
| 20260503171352 | 8 | 100 | 1.6 | 8.0 | 0.00 | 0.03 | 0.00 | 57 | 1019.3 |
| 20260503171152 | 8 | 342 | 3.2 | 8.0 | 0.00 | 0.03 | 0.00 | 57 | 1019.3 |
| 20260503170952 | 8 | 66 | 3.2 | 8.0 | 0.00 | 0.03 | 0.00 | 57 | 1019.2 |
| 20260503170752 | 8 | 37 | 4.8 | 8.0 | 0.00 | 0.03 | 0.00 | 56 | 1019.2 |
| 20260503170552 | 8 | 27 | 3.2 | 8.0 | 0.00 | 0.03 | 0.00 | 54 | 1019.3 |
| 20260503170351 | 8 | 5 | 1.6 | 6.4 | 0.00 | 0.03 | 0.00 | 58 | 1019.5 |
| 20260503170151 | 8 | 74 | 3.2 | 6.4 | 0.00 | 0.03 | 0.00 | 56 | 1019.3 |
| 20260503160151 | 10 | 25 | 1.6 | 4.8 | 0.00 | 0.03 | 0.00 | 52 | 1019.5 |
| 20260503150951 | 11 | 40 | 4.8 | 9.7 | 0.00 | 0.18 | 0.00 | 49 | 1019.6 |
| 20260503150751 | 11 | 63 | 4.8 | 8.0 | 0.00 | 0.18 | 0.00 | 49 | 1019.7 |
| 20260503150551 | 11 | 28 | 6.4 | 8.0 | 0.00 | 0.18 | 0.00 | 49 | 1019.7 |
| 20260503150351 | 11 | 65 | 1.6 | 8.0 | 0.00 | 0.18 | 0.00 | 49 | 1019.8 |
| 20260503150151 | 11 | 110 | 1.6 | 8.0 | 0.00 | 0.18 | 0.00 | 49 | 1019.8 |
| 20260503140151 | 12 | 46 | 4.8 | 11.3 | 0.00 | 0.18 | 0.00 | 50 | 1020.0 |
| 20260503131351 | 12 | 271 | 6.4 | 9.7 | 0.00 | 0.18 | 0.00 | 48 | 1019.9 |
| 20260503131151 | 12 | 56 | 4.8 | 9.7 | 0.00 | 0.18 | 0.00 | 47 | 1019.8 |
| 20260503130951 | 12 | 80 | 1.6 | 9.7 | 0.00 | 0.18 | 0.00 | 50 | 1020.0 |
| 20260503130751 | 11 | 284 | 3.2 | 9.7 | 0.00 | 0.18 | 0.00 | 48 | 1019.9 |
| 20260503130552 | 11 | 88 | 3.2 | 12.9 | 0.00 | 0.18 | 0.00 | 49 | 1019.9 |
| 20260503130351 | 11 | 47 | 3.2 | 12.9 | 0.00 | 0.18 | 0.00 | 49 | 1020.1 |
| 20260503130151 | 11 | 38 | 6.4 | 12.9 | 0.00 | 0.18 | 0.00 | 50 | 1019.9 |
| 20260503120151 | 11 | 63 | 1.6 | 6.4 | 0.00 | 0.18 | 0.00 | 52 | 1020.6 |
| 20260503110751 | 11 | 291 | 4.8 | 14.5 | 0.00 | 0.18 | 0.00 | 51 | 1020.9 |
| 20260503110552 | 11 | 13 | 3.2 | 14.5 | 0.00 | 0.18 | 0.00 | 54 | 1020.8 |
| 20260503110351 | 11 | 29 | 3.2 | 14.5 | 0.00 | 0.18 | 0.00 | 54 | 1020.9 |
| 20260503110151 | 11 | 170 | 3.2 | 14.5 | 0.00 | 0.18 | 0.00 | 55 | 1020.8 |
| 20260503100151 | 10 | 58 | 3.2 | 9.7 | 0.00 | 0.18 | 0.00 | 49 | 1020.9 |
| 20260503090351 | 10 | 132 | 3.2 | 14.5 | 0.00 | 0.18 | 0.00 | 57 | 1021.3 |
| 20260503090152 | 9 | 51 | 0.0 | 14.5 | 0.00 | 0.18 | 0.00 | 57 | 1021.4 |
| 20260503081551 | 10 | 40 | 6.4 | 12.9 | 0.00 | 0.18 | 0.00 | 55 | 1021.3 |
| 20260503081351 | 9 | 65 | 3.2 | 12.9 | 0.00 | 0.18 | 0.00 | 61 | 1021.4 |
| 20260503081151 | 8 | 50 | 6.4 | 12.9 | 0.00 | 0.18 | 0.00 | 58 | 1021.3 |
| 20260503080951 | 8 | 55 | 3.2 | 12.9 | 0.00 | 0.18 | 0.00 | 58 | 1021.3 |
| 20260503080751 | 8 | 51 | 0.0 | 12.9 | 0.00 | 0.18 | 0.00 | 60 | 1021.3 |
| 20260503080551 | 8 | 62 | 4.8 | 11.3 | 0.00 | 0.18 | 0.00 | 58 | 1021.2 |
| 20260503080352 | 8 | 42 | 3.2 | 11.3 | 0.00 | 0.18 | 0.00 | 58 | 1021.5 |
| 20260503080152 | 8 | 36 | 6.4 | 11.3 | 0.00 | 0.18 | 0.00 | 58 | 1021.3 |
| 20260503072751 | 7 | 20 | 4.8 | 12.9 | 0.00 | 0.18 | 0.00 | 62 | 1021.3 |
| 20260503072551 | 7 | 43 | 3.2 | 12.9 | 0.00 | 0.18 | 0.00 | 62 | 1021.1 |
| 20260503072351 | 7 | 29 | 6.4 | 16.1 | 0.00 | 0.18 | 0.00 | 61 | 1021.1 |
| 20260503072151 | 7 | 358 | 3.2 | 16.1 | 0.00 | 0.18 | 0.00 | 63 | 1021.2 |
| 20260503071951 | 7 | 42 | 8.0 | 16.1 | 0.00 | 0.18 | 0.00 | 63 | 1021.2 |
| 20260503071752 | 7 | 22 | 1.6 | 16.1 | 0.00 | 0.18 | 0.00 | 64 | 1021.4 |
| 20260503071552 | 7 | 48 | 3.2 | 16.1 | 0.00 | 0.18 | 0.00 | 64 | 1021.3 |
| 20260503071355 | 7 | 41 | 8.0 | 22.5 | 0.00 | 0.18 | 0.00 | 64 | 1021.0 |
| 20260503071151 | 7 | 35 | 11.3 | 22.5 | 0.00 | 0.18 | 0.00 | 64 | 1021.1 |
| 20260503070952 | 7 | 53 | 6.4 | 22.5 | 0.00 | 0.18 | 0.00 | 62 | 1021.2 |
| 20260503070751 | 7 | 70 | 4.8 | 22.5 | 0.00 | 0.18 | 0.00 | 63 | 1021.3 |
| 20260503070551 | 7 | 10 | 6.4 | 22.5 | 0.00 | 0.18 | 0.00 | 62 | 1021.2 |
| 20260503070351 | 7 | 58 | 4.8 | 17.7 | 0.00 | 0.18 | 0.00 | 61 | 1021.2 |
| 20260503070151 | 7 | 60 | 4.8 | 17.7 | 0.00 | 0.18 | 0.00 | 61 | 1021.1 |
| 20260503060151 | 7 | 83 | 3.2 | 16.1 | 0.00 | 0.18 | 0.00 | 66 | 1020.6 |
| 20260503054951 | 6 | 20 | 6.4 | 12.9 | 0.00 | 0.18 | 0.00 | 67 | 1020.6 |
| 20260503054751 | 6 | 37 | 8.0 | 12.9 | 0.00 | 0.18 | 0.00 | 66 | 1020.7 |
| 20260503054552 | 6 | 27 | 6.4 | 12.9 | 0.00 | 0.18 | 0.00 | 67 | 1020.7 |
| 20260503054351 | 6 | 59 | 4.8 | 12.9 | 0.00 | 0.18 | 0.00 | 68 | 1020.7 |
| 20260503054151 | 6 | 48 | 6.4 | 12.9 | 0.00 | 0.18 | 0.00 | 68 | 1020.7 |
| 20260503053951 | 6 | 15 | 9.7 | 12.9 | 0.00 | 0.18 | 0.00 | 68 | 1020.6 |
| 20260503053551 | 6 | 28 | 4.8 | 14.5 | 0.00 | 0.18 | 0.00 | 69 | 1020.6 |
| 20260503053351 | 6 | 50 | 3.2 | 14.5 | 0.00 | 0.18 | 0.00 | 69 | 1020.6 |
| 20260503053151 | 6 | 44 | 12.9 | 14.5 | 0.00 | 0.18 | 0.00 | 67 | 1020.8 |
| 20260503052951 | 6 | 66 | 9.7 | 14.5 | 0.00 | 0.18 | 0.00 | 67 | 1020.6 |
| 20260503052751 | 6 | 11 | 4.8 | 14.5 | 0.00 | 0.18 | 0.00 | 66 | 1020.7 |
| 20260503052552 | 6 | 35 | 3.2 | 12.9 | 0.00 | 0.18 | 0.00 | 66 | 1020.7 |
| 20260503052351 | 7 | 44 | 6.4 | 12.9 | 0.00 | 0.18 | 0.00 | 65 | 1020.6 |
| 20260503052151 | 7 | 55 | 3.2 | 20.9 | 0.00 | 0.18 | 0.00 | 66 | 1020.7 |
| 20260503051952 | 7 | 40 | 8.0 | 20.9 | 0.00 | 0.18 | 0.00 | 65 | 1020.5 |
| 20260503051752 | 6 | 83 | 4.8 | 20.9 | 0.00 | 0.18 | 0.00 | 67 | 1020.4 |
| 20260503051552 | 6 | 99 | 3.2 | 20.9 | 0.00 | 0.18 | 0.00 | 68 | 1020.4 |
| 20260503051352 | 6 | 23 | 3.2 | 20.9 | 0.00 | 0.18 | 0.00 | 69 | 1020.5 |
| 20260503051152 | 6 | 41 | 3.2 | 19.3 | 0.00 | 0.18 | 0.00 | 67 | 1020.5 |
| 20260503050951 | 6 | 62 | 4.8 | 19.3 | 0.00 | 0.18 | 0.00 | 69 | 1020.5 |
| 20260503050739 | 7 | 15 | 9.7 | 19.3 | 0.00 | 0.18 | 0.00 | 68 | 1020.3 |
| 20260503050539 | 7 | 56 | 6.4 | 17.7 | 0.00 | 0.18 | 0.00 | 69 | 1020.4 |
| 20260503050340 | 6 | 32 | 16.1 | 17.7 | 0.00 | 0.18 | 0.00 | 70 | 1020.5 |
| 20260503050139 | 6 | 50 | 6.4 | 16.1 | 0.00 | 0.18 | 0.00 | 69 | 1020.3 |
| 20260503045940 | 7 | 97 | 9.7 | 11.3 | 0.00 | 0.18 | 0.00 | 71 | 1020.5 |
| 20260503045739 | 6 | 153 | 4.8 | 11.3 | 0.00 | 0.18 | 0.00 | 71 | 1020.3 |
| 20260503045539 | 6 | 11 | 9.7 | 14.5 | 0.00 | 0.18 | 0.00 | 70 | 1020.3 |
| 20260503045339 | 6 | 64 | 6.4 | 14.5 | 0.00 | 0.18 | 0.00 | 71 | 1020.4 |
| 20260503045139 | 6 | 167 | 4.8 | 14.5 | 0.00 | 0.18 | 0.00 | 71 | 1020.4 |
| 20260503044939 | 6 | 54 | 6.4 | 14.5 | 0.00 | 0.18 | 0.00 | 71 | 1020.2 |
| 20260503044739 | 6 | 34 | 8.0 | 14.5 | 0.00 | 0.18 | 0.00 | 72 | 1020.3 |
| 20260503044539 | 6 | 32 | 8.0 | 14.5 | 0.00 | 0.18 | 0.00 | 73 | 1020.2 |
| 20260503044339 | 5 | 53 | 4.8 | 14.5 | 0.00 | 0.18 | 0.00 | 74 | 1020.2 |
| 20260503044139 | 5 | 18 | 6.4 | 12.9 | 0.00 | 0.18 | 0.00 | 74 | 1020.5 |
| 20260503043939 | 5 | 42 | 6.4 | 12.9 | 0.00 | 0.18 | 0.00 | 74 | 1020.1 |
| 20260503043739 | 5 | 80 | 3.2 | 11.3 | 0.00 | 0.18 | 0.00 | 74 | 1020.3 |
| 20260503043539 | 5 | 146 | 3.2 | 11.3 | 0.00 | 0.18 | 0.00 | 73 | 1020.3 |
| 20260503043339 | 5 | 76 | 4.8 | 9.7 | 0.00 | 0.18 | 0.00 | 72 | 1020.1 |
| 20260503043139 | 5 | 40 | 3.2 | 9.7 | 0.00 | 0.18 | 0.00 | 72 | 1020.3 |
| 20260503042940 | 5 | 49 | 3.2 | 9.7 | 0.00 | 0.18 | 0.00 | 73 | 1020.2 |
| 20260503042739 | 5 | 42 | 6.4 | 14.5 | 0.00 | 0.18 | 0.00 | 73 | 1020.2 |
| 20260503042540 | 5 | 98 | 4.8 | 14.5 | 0.00 | 0.18 | 0.00 | 72 | 1020.4 |
| 20260503042340 | 5 | 28 | 8.0 | 14.5 | 0.00 | 0.18 | 0.00 | 73 | 1020.3 |
| 20260503042139 | 5 | 34 | 8.0 | 14.5 | 0.00 | 0.18 | 0.00 | 72 | 1020.1 |
| 20260503041939 | 5 | 29 | 4.8 | 14.5 | 0.00 | 0.18 | 0.00 | 73 | 1020.0 |
| 20260503041740 | 5 | 34 | 6.4 | 14.5 | 0.00 | 0.18 | 0.00 | 73 | 1020.1 |
| 20260503041539 | 5 | 62 | 4.8 | 14.5 | 0.00 | 0.18 | 0.00 | 74 | 1020.2 |
| 20260503041340 | 5 | 64 | 4.8 | 14.5 | 0.00 | 0.18 | 0.00 | 73 | 1020.2 |
| 20260503041140 | 5 | 50 | 4.8 | 14.5 | 0.00 | 0.18 | 0.00 | 72 | 1020.1 |
| 20260503040939 | 5 | 65 | 3.2 | 14.5 | 0.00 | 0.18 | 0.00 | 73 | 1020.2 |
| 20260503040739 | 5 | 26 | 9.7 | 12.9 | 0.00 | 0.18 | 0.00 | 74 | 1020.1 |
| 20260503040539 | 5 | 32 | 4.8 | 12.9 | 0.00 | 0.18 | 0.00 | 74 | 1020.2 |
| 20260503040340 | 5 | 92 | 3.2 | 12.9 | 0.00 | 0.18 | 0.00 | 73 | 1020.1 |
| 20260503040133 | 5 | 49 | 11.3 | 12.9 | 0.00 | 0.18 | 0.00 | 73 | 1020.0 |
| 20260503035928 | 5 | 51 | 4.8 | 14.5 | 0.00 | 0.18 | 0.00 | 74 | 1020.0 |
| 20260503035727 | 5 | 62 | 8.0 | 14.5 | 0.00 | 0.18 | 0.00 | 74 | 1020.0 |
| 20260503035527 | 5 | 40 | 4.8 | 14.5 | 0.00 | 0.18 | 0.00 | 75 | 1020.2 |
| 20260503035327 | 5 | 31 | 8.0 | 14.5 | 0.00 | 0.18 | 0.00 | 74 | 1020.1 |
| 20260503035127 | 5 | 24 | 4.8 | 12.9 | 0.00 | 0.18 | 0.00 | 74 | 1020.1 |
| 20260503034927 | 5 | 15 | 4.8 | 11.3 | 0.00 | 0.18 | 0.00 | 77 | 1019.9 |
| 20260503034727 | 5 | 22 | 4.8 | 11.3 | 0.00 | 0.18 | 0.00 | 77 | 1020.1 |
| 20260503034527 | 5 | 76 | 3.2 | 11.3 | 0.00 | 0.18 | 0.00 | 76 | 1020.0 |
| 20260503034327 | 5 | 126 | 4.8 | 11.3 | 0.00 | 0.18 | 0.00 | 78 | 1019.8 |
| 20260503034127 | 5 | 120 | 3.2 | 11.3 | 0.00 | 0.18 | 0.00 | 78 | 1019.9 |
| 20260503033927 | 5 | 47 | 6.4 | 11.3 | 0.00 | 0.18 | 0.00 | 77 | 1019.9 |
| 20260503033727 | 5 | 19 | 8.0 | 9.7 | 0.00 | 0.18 | 0.00 | 76 | 1019.8 |
| 20260503033527 | 5 | 48 | 6.4 | 9.7 | 0.00 | 0.18 | 0.00 | 77 | 1019.7 |
| 20260503033327 | 5 | 355 | 9.7 | 9.7 | 0.00 | 0.18 | 0.00 | 78 | 1019.7 |
| 20260503033128 | 5 | 64 | 6.4 | 9.7 | 0.00 | 0.18 | 0.00 | 80 | 1019.5 |
| 20260503032927 | 5 | 28 | 4.8 | 9.7 | 0.00 | 0.18 | 0.00 | 80 | 1019.7 |
| 20260503032728 | 5 | 43 | 6.4 | 9.7 | 0.00 | 0.18 | 0.00 | 79 | 1019.5 |
| 20260503032528 | 5 | 20 | 4.8 | 9.7 | 0.00 | 0.18 | 0.00 | 79 | 1019.5 |
| 20260503032316 | 5 | 55 | 6.4 | 8.0 | 0.00 | 0.18 | 0.00 | 79 | 1019.5 |
| 20260503032116 | 5 | 83 | 3.2 | 11.3 | 0.00 | 0.18 | 0.00 | 79 | 1019.6 |
| 20260503031916 | 4 | 83 | 3.2 | 11.3 | 0.00 | 0.18 | 0.00 | 79 | 1019.6 |
| 20260503031716 | 5 | 92 | 1.6 | 11.3 | 0.00 | 0.18 | 0.00 | 79 | 1019.2 |
| 20260503031516 | 5 | 41 | 4.8 | 11.3 | 0.00 | 0.18 | 0.00 | 79 | 1019.6 |
| 20260503031316 | 5 | 31 | 8.0 | 11.3 | 0.00 | 0.18 | 0.00 | 78 | 1019.3 |
| 20260503031116 | 5 | 31 | 8.0 | 11.3 | 0.00 | 0.18 | 0.00 | 77 | 1019.7 |
| 20260503030916 | 5 | 15 | 11.3 | 11.3 | 0.00 | 0.18 | 0.00 | 76 | 1019.5 |
| 20260503030716 | 5 | 25 | 4.8 | 9.7 | 0.00 | 0.18 | 0.00 | 76 | 1019.7 |
| 20260503030515 | 4 | 13 | 6.4 | 11.3 | 0.00 | 0.18 | 0.00 | 78 | 1019.3 |
| 20260503030315 | 5 | 43 | 3.2 | 11.3 | 0.00 | 0.18 | 0.00 | 78 | 1019.6 |
| 20260503030115 | 5 | 20 | 4.8 | 11.3 | 0.00 | 0.18 | 0.00 | 77 | 1019.3 |
| 20260503025915 | 5 | 63 | 4.8 | 12.9 | 0.00 | 0.18 | 0.00 | 76 | 1019.6 |
| 20260503025715 | 5 | 5 | 3.2 | 12.9 | 0.00 | 0.18 | 0.00 | 74 | 1019.5 |
| 20260503025515 | 5 | 34 | 11.3 | 12.9 | 0.00 | 0.18 | 0.00 | 75 | 1019.5 |
| 20260503025315 | 5 | 54 | 4.8 | 12.9 | 0.00 | 0.18 | 0.00 | 78 | 1019.6 |
| 20260503025115 | 5 | 100 | 4.8 | 12.9 | 0.00 | 0.18 | 0.00 | 77 | 1019.2 |
| 20260503024915 | 4 | 30 | 6.4 | 9.7 | 0.00 | 0.18 | 0.00 | 78 | 1019.6 |
| 20260503024715 | 4 | 46 | 3.2 | 8.0 | 0.00 | 0.18 | 0.00 | 78 | 1019.5 |
| 20260503024517 | 4 | 77 | 0.0 | 8.0 | 0.00 | 0.18 | 0.00 | 80 | 1019.2 |
| 20260503024316 | 4 | 84 | 3.2 | 11.3 | 0.00 | 0.18 | 0.00 | 80 | 1019.5 |
| 20260503024115 | 4 | 27 | 3.2 | 11.3 | 0.00 | 0.18 | 0.00 | 81 | 1019.3 |
| 20260503023916 | 4 | 76 | 3.2 | 11.3 | 0.00 | 0.18 | 0.00 | 81 | 1019.1 |
| 20260503023716 | 4 | 24 | 0.0 | 11.3 | 0.00 | 0.18 | 0.00 | 82 | 1019.5 |
| 20260503023516 | 4 | 194 | 3.2 | 11.3 | 0.00 | 0.18 | 0.00 | 81 | 1019.2 |
| 20260503023316 | 5 | 38 | 11.3 | 11.3 | 0.00 | 0.18 | 0.00 | 78 | 1019.6 |
| 20260503023116 | 5 | 50 | 4.8 | 11.3 | 0.00 | 0.18 | 0.00 | 76 | 1019.2 |
| 20260503022915 | 5 | 6 | 3.2 | 11.3 | 0.00 | 0.18 | 0.00 | 76 | 1019.3 |
| 20260503022715 | 5 | 26 | 8.0 | 9.7 | 0.00 | 0.18 | 0.00 | 74 | 1019.2 |
| 20260503022515 | 5 | 28 | 6.4 | 9.7 | 0.00 | 0.18 | 0.00 | 74 | 1019.5 |
| 20260503022315 | 5 | 25 | 4.8 | 11.3 | 0.00 | 0.18 | 0.00 | 78 | 1019.2 |
| 20260503022115 | 4 | 162 | 3.2 | 11.3 | 0.00 | 0.18 | 0.00 | 78 | 1019.2 |
| 20260503021915 | 4 | 140 | 4.8 | 11.3 | 0.00 | 0.18 | 0.00 | 78 | 1019.5 |
| 20260503021715 | 4 | 99 | 1.6 | 11.3 | 0.00 | 0.18 | 0.00 | 78 | 1019.3 |
| 20260503021515 | 4 | 53 | 4.8 | 11.3 | 0.00 | 0.18 | 0.00 | 78 | 1019.3 |
| 20260503021315 | 4 | 34 | 6.4 | 11.3 | 0.00 | 0.18 | 0.00 | 78 | 1019.1 |
| 20260503021115 | 3 | 160 | 1.6 | 8.0 | 0.00 | 0.18 | 0.00 | 80 | 1019.3 |
| 20260503020915 | 3 | 45 | 4.8 | 8.0 | 0.00 | 0.18 | 0.00 | 85 | 1019.2 |
| 20260503020715 | 3 | 3 | 4.8 | 8.0 | 0.00 | 0.18 | 0.00 | 88 | 1019.2 |
| 20260503020515 | 3 | 46 | 4.8 | 8.0 | 0.00 | 0.18 | 0.00 | 86 | 1019.5 |